GGA983 KPIT-KATL

Flight info

Callsign GGA983
Flight time 1h 12m
Altitude 36000
Route AHTIY BURGS HVQ HLRRY ONDRE1
Aircraft A321/L-SDE3FGHIRWY/LB1

Departure

Time 2026-05-04 15:14
Airport Pittsburgh International Airport (KPIT)

Arrival

Time 2026-05-04 16:26
Airport Hartsfield Jackson Atlanta International Airport (KATL)
Time Latitude Longitude Altitude Speed Heading
2026-05-04 14:26 40.49701 -80.24358 1160 ft 0 kts 317°
2026-05-04 15:03 40.49696 -80.24353 1159 ft 2 kts 317°
2026-05-04 15:03 40.49685 -80.24340 1158 ft 2 kts 317°
2026-05-04 15:04 40.49678 -80.24331 1158 ft 1 kts 318°
2026-05-04 15:04 40.49669 -80.24316 1157 ft 2 kts 281°
2026-05-04 15:04 40.49668 -80.24306 1157 ft 1 kts 264°
2026-05-04 15:04 40.49669 -80.24297 1157 ft 0 kts 265°
2026-05-04 15:06 40.49668 -80.24303 1157 ft 0 kts 242°
2026-05-04 15:07 40.49565 -80.24397 1157 ft 16 kts 176°
2026-05-04 15:07 40.49466 -80.24313 1156 ft 17 kts 130°
2026-05-04 15:07 40.49415 -80.24184 1155 ft 15 kts 96°
2026-05-04 15:07 40.49411 -80.24051 1155 ft 14 kts 91°
2026-05-04 15:08 40.49348 -80.23990 1154 ft 17 kts 190°
2026-05-04 15:08 40.49215 -80.24000 1153 ft 18 kts 181°
2026-05-04 15:08 40.49090 -80.23981 1150 ft 17 kts 144°
2026-05-04 15:08 40.49064 -80.23837 1150 ft 15 kts 98°
2026-05-04 15:09 40.49047 -80.23701 1149 ft 14 kts 98°
2026-05-04 15:09 40.49048 -80.23570 1149 ft 16 kts 89°
2026-05-04 15:09 40.49049 -80.23399 1149 ft 21 kts 94°
2026-05-04 15:10 40.49039 -80.22984 1149 ft 22 kts 94°
2026-05-04 15:10 40.49034 -80.22784 1148 ft 21 kts 92°
2026-05-04 15:10 40.49027 -80.22404 1148 ft 20 kts 92°
2026-05-04 15:11 40.49035 -80.22225 1148 ft 19 kts 92°
2026-05-04 15:11 40.49029 -80.22053 1148 ft 18 kts 93°
2026-05-04 15:11 40.49026 -80.21880 1148 ft 18 kts 91°
2026-05-04 15:11 40.49019 -80.21716 1148 ft 17 kts 94°
2026-05-04 15:12 40.49004 -80.21558 1147 ft 17 kts 108°
2026-05-04 15:12 40.48980 -80.21379 1147 ft 22 kts 92°
2026-05-04 15:12 40.48976 -80.21155 1147 ft 25 kts 90°
2026-05-04 15:12 40.48963 -80.20953 1147 ft 16 kts 141°
2026-05-04 15:13 40.48896 -80.20990 1147 ft 12 kts 274°
2026-05-04 15:13 40.48900 -80.21305 1147 ft 67 kts 272°
2026-05-04 15:13 40.48919 -80.22207 1147 ft 127 kts 272°
2026-05-04 15:13 40.48975 -80.23570 1285 ft 161 kts 271°
2026-05-04 15:14 40.49050 -80.24979 1906 ft 159 kts 271°
2026-05-04 15:14 40.49146 -80.26433 2496 ft 161 kts 270°
2026-05-04 15:14 40.49266 -80.27894 3036 ft 162 kts 271°
2026-05-04 15:14 40.49305 -80.29398 3285 ft 170 kts 253°
2026-05-04 15:15 40.48573 -80.30600 3501 ft 180 kts 206°
2026-05-04 15:15 40.47292 -80.30801 3768 ft 197 kts 184°
2026-05-04 15:15 40.45849 -80.30862 3985 ft 214 kts 188°
2026-05-04 15:16 40.42662 -80.31261 4625 ft 247 kts 190°
2026-05-04 15:16 40.40916 -80.31499 5146 ft 256 kts 190°
2026-05-04 15:16 40.37340 -80.31990 6529 ft 262 kts 191°
2026-05-04 15:17 40.35525 -80.32245 7206 ft 266 kts 191°
2026-05-04 15:17 40.31802 -80.32774 8527 ft 275 kts 191°
2026-05-04 15:17 40.29899 -80.33042 9167 ft 280 kts 191°
2026-05-04 15:18 40.27951 -80.33317 9810 ft 284 kts 192°
2026-05-04 15:18 40.25957 -80.33599 10395 ft 291 kts 192°
2026-05-04 15:18 40.23907 -80.33894 10712 ft 307 kts 191°
2026-05-04 15:19 40.19449 -80.34531 11287 ft 338 kts 191°
2026-05-04 15:19 40.17040 -80.34870 11642 ft 351 kts 191°
2026-05-04 15:19 40.12141 -80.35548 12848 ft 358 kts 191°
2026-05-04 15:20 40.09666 -80.35895 13421 ft 362 kts 191°
2026-05-04 15:20 40.07150 -80.36248 13993 ft 365 kts 191°
2026-05-04 15:20 40.04621 -80.36603 14541 ft 369 kts 191°
2026-05-04 15:20 40.02034 -80.36968 15081 ft 374 kts 191°
2026-05-04 15:21 39.99422 -80.37337 15602 ft 378 kts 191°
2026-05-04 15:21 39.96793 -80.37704 16129 ft 382 kts 191°
2026-05-04 15:21 39.91577 -80.38968 17097 ft 383 kts 205°
2026-05-04 15:22 39.89188 -80.40503 17592 ft 379 kts 217°
2026-05-04 15:22 39.87032 -80.42443 18084 ft 380 kts 221°
2026-05-04 15:22 39.82725 -80.46545 19053 ft 386 kts 221°
2026-05-04 15:23 39.80545 -80.48607 19554 ft 389 kts 221°
2026-05-04 15:23 39.78345 -80.50678 20045 ft 391 kts 221°
2026-05-04 15:23 39.76144 -80.52739 20503 ft 394 kts 220°
2026-05-04 15:23 39.73914 -80.54820 20964 ft 396 kts 220°
2026-05-04 15:24 39.69411 -80.59008 21841 ft 401 kts 220°
2026-05-04 15:24 39.64797 -80.63150 22698 ft 406 kts 219°
2026-05-04 15:25 39.62486 -80.65210 23102 ft 409 kts 218°
2026-05-04 15:25 39.60136 -80.67306 23516 ft 411 kts 218°
2026-05-04 15:25 39.57774 -80.69415 23908 ft 414 kts 218°
2026-05-04 15:26 39.53034 -80.73644 24696 ft 418 kts 218°
2026-05-04 15:26 39.50621 -80.75797 25061 ft 420 kts 218°
2026-05-04 15:26 39.45796 -80.80096 25762 ft 425 kts 218°
2026-05-04 15:27 39.43364 -80.82259 26111 ft 427 kts 218°
2026-05-04 15:27 39.38462 -80.86616 26770 ft 431 kts 219°
2026-05-04 15:28 39.33505 -80.91017 27417 ft 434 kts 218°
2026-05-04 15:28 39.30989 -80.93246 27715 ft 436 kts 219°
2026-05-04 15:28 39.25998 -80.97665 28313 ft 439 kts 219°
2026-05-04 15:29 39.23462 -80.99907 28602 ft 441 kts 219°
2026-05-04 15:30 39.13351 -81.08820 30010 ft 439 kts 219°
2026-05-04 15:30 39.05820 -81.15443 31058 ft 436 kts 220°
2026-05-04 15:31 39.00814 -81.19834 31718 ft 434 kts 220°
2026-05-04 15:31 38.98344 -81.22000 32029 ft 433 kts 220°
2026-05-04 15:32 38.90911 -81.28507 32976 ft 429 kts 221°
2026-05-04 15:32 38.85999 -81.32797 33490 ft 428 kts 221°
2026-05-04 15:33 38.81097 -81.37073 33999 ft 427 kts 221°
2026-05-04 15:34 38.73714 -81.43498 34564 ft 429 kts 221°
2026-05-04 15:34 38.71235 -81.45654 34725 ft 430 kts 221°
2026-05-04 15:34 38.66282 -81.49949 35025 ft 432 kts 222°
2026-05-04 15:35 38.61306 -81.54263 35311 ft 432 kts 221°
2026-05-04 15:35 38.58858 -81.56381 35430 ft 432 kts 221°
2026-05-04 15:35 38.56345 -81.58553 35546 ft 433 kts 221°
2026-05-04 15:36 38.51359 -81.62859 35782 ft 434 kts 221°
2026-05-04 15:36 38.48866 -81.65010 35892 ft 434 kts 221°
2026-05-04 15:36 38.46363 -81.67168 35945 ft 436 kts 220°
2026-05-04 15:37 38.41354 -81.71474 35957 ft 437 kts 221°
2026-05-04 15:37 38.36127 -81.75510 35961 ft 441 kts 215°
2026-05-04 15:38 38.30519 -81.78822 35962 ft 448 kts 208°
2026-05-04 15:38 38.24656 -81.81467 35964 ft 449 kts 206°
2026-05-04 15:39 38.18760 -81.84044 35965 ft 449 kts 206°
2026-05-04 15:40 38.09868 -81.87930 35967 ft 450 kts 206°
2026-05-04 15:40 38.03965 -81.90505 35958 ft 451 kts 206°
2026-05-04 15:41 37.98028 -81.93086 35967 ft 449 kts 206°
2026-05-04 15:41 37.92138 -81.95650 35972 ft 448 kts 206°
2026-05-04 15:42 37.86248 -81.98206 35978 ft 448 kts 206°
2026-05-04 15:42 37.80396 -82.00742 35978 ft 447 kts 206°
2026-05-04 15:43 37.74494 -82.03294 35981 ft 446 kts 206°
2026-05-04 15:43 37.68641 -82.05823 35988 ft 446 kts 206°
2026-05-04 15:44 37.62756 -82.08360 35993 ft 445 kts 206°
2026-05-04 15:44 37.56946 -82.10860 35998 ft 444 kts 206°
2026-05-04 15:45 37.51080 -82.13381 36004 ft 443 kts 207°
2026-05-04 15:45 37.45258 -82.15880 36011 ft 442 kts 207°
2026-05-04 15:46 37.39470 -82.18362 36015 ft 442 kts 207°
2026-05-04 15:46 37.33652 -82.20850 36018 ft 441 kts 207°
2026-05-04 15:47 37.27839 -82.23334 36019 ft 441 kts 207°
2026-05-04 15:47 37.22009 -82.25822 36020 ft 441 kts 207°
2026-05-04 15:48 37.16222 -82.28289 36022 ft 440 kts 207°
2026-05-04 15:48 37.07600 -82.32032 36038 ft 435 kts 210°
2026-05-04 15:49 37.02066 -82.35056 36039 ft 432 kts 212°
2026-05-04 15:49 36.96577 -82.38159 36047 ft 431 kts 213°
2026-05-04 15:50 36.91110 -82.41248 36048 ft 432 kts 212°
2026-05-04 15:50 36.85645 -82.44335 36051 ft 432 kts 212°
2026-05-04 15:51 36.80159 -82.47427 36055 ft 433 kts 212°
2026-05-04 15:51 36.74691 -82.50500 36056 ft 432 kts 212°
2026-05-04 15:52 36.69204 -82.53584 36059 ft 433 kts 212°
2026-05-04 15:52 36.63723 -82.56659 36058 ft 432 kts 212°
2026-05-04 15:53 36.58234 -82.59734 36062 ft 432 kts 212°
2026-05-04 15:53 36.52767 -82.62791 36064 ft 432 kts 212°
2026-05-04 15:54 36.47266 -82.65863 36066 ft 433 kts 211°
2026-05-04 15:54 36.41787 -82.68919 36066 ft 433 kts 211°
2026-05-04 15:55 36.36269 -82.71994 36068 ft 434 kts 211°
2026-05-04 15:55 36.30762 -82.75059 36067 ft 434 kts 211°
2026-05-04 15:56 36.25283 -82.78100 36071 ft 434 kts 211°
2026-05-04 15:56 36.19802 -82.81276 36075 ft 433 kts 213°
2026-05-04 15:57 36.14410 -82.84463 36079 ft 433 kts 213°
2026-05-04 15:57 36.08969 -82.87667 36083 ft 433 kts 213°
2026-05-04 15:58 36.03511 -82.90874 36080 ft 432 kts 213°
2026-05-04 15:58 35.98092 -82.94050 36070 ft 432 kts 213°
2026-05-04 15:59 35.92651 -82.97236 36051 ft 432 kts 213°
2026-05-04 15:59 35.87209 -83.00420 36053 ft 432 kts 212°
2026-05-04 16:00 35.81768 -83.03599 36055 ft 432 kts 212°
2026-05-04 16:00 35.76369 -83.06741 36062 ft 432 kts 212°
2026-05-04 16:01 35.70934 -83.09896 36067 ft 432 kts 212°
2026-05-04 16:01 35.65506 -83.13048 36067 ft 432 kts 212°
2026-05-04 16:02 35.60061 -83.16209 36071 ft 432 kts 212°
2026-05-04 16:03 35.51918 -83.20932 36077 ft 432 kts 212°
2026-05-04 16:03 35.46470 -83.24084 36078 ft 433 kts 212°
2026-05-04 16:04 35.41029 -83.27203 36078 ft 434 kts 212°
2026-05-04 16:04 35.32830 -83.31826 36094 ft 433 kts 211°
2026-05-04 16:05 35.27355 -83.34914 36089 ft 433 kts 211°
2026-05-04 16:06 35.19143 -83.39545 36068 ft 431 kts 211°
2026-05-04 16:06 35.11843 -83.43663 34315 ft 441 kts 211°
2026-05-04 16:07 35.08100 -83.45770 32949 ft 447 kts 211°
2026-05-04 16:07 34.99594 -83.50633 30032 ft 454 kts 211°
2026-05-04 16:08 34.96716 -83.52290 29074 ft 457 kts 211°
2026-05-04 16:08 34.88155 -83.57206 27228 ft 443 kts 211°
2026-05-04 16:09 34.82699 -83.60335 26142 ft 433 kts 211°
2026-05-04 16:09 34.77285 -83.63441 25060 ft 423 kts 211°
2026-05-04 16:10 34.71994 -83.66476 23968 ft 414 kts 211°
2026-05-04 16:11 34.64283 -83.70891 22403 ft 403 kts 210°
2026-05-04 16:11 34.61753 -83.72334 21892 ft 400 kts 210°
2026-05-04 16:12 34.54282 -83.76597 20353 ft 392 kts 210°
2026-05-04 16:12 34.46941 -83.80788 18836 ft 387 kts 210°
2026-05-04 16:13 34.42051 -83.83576 17830 ft 384 kts 209°
2026-05-04 16:13 34.37234 -83.86321 16847 ft 381 kts 209°
2026-05-04 16:14 34.32465 -83.89062 15871 ft 377 kts 210°
2026-05-04 16:14 34.27845 -83.91978 14894 ft 373 kts 211°
2026-05-04 16:15 34.21032 -83.96299 13425 ft 367 kts 210°
2026-05-04 16:16 34.16597 -83.99098 12955 ft 353 kts 209°
2026-05-04 16:16 34.10031 -84.03197 11453 ft 356 kts 204°
2026-05-04 16:17 34.05418 -84.04994 10969 ft 339 kts 197°
2026-05-04 16:18 33.98800 -84.07431 10083 ft 322 kts 198°
2026-05-04 16:18 33.96676 -84.08244 9760 ft 317 kts 198°
2026-05-04 16:19 33.90553 -84.10612 8933 ft 294 kts 198°
2026-05-04 16:19 33.86796 -84.12073 8506 ft 276 kts 198°
2026-05-04 16:20 33.81332 -84.14195 6592 ft 274 kts 198°
2026-05-04 16:20 33.77737 -84.15592 5376 ft 271 kts 199°
2026-05-04 16:21 33.72438 -84.17651 3627 ft 264 kts 199°
2026-05-04 16:22 33.69067 -84.18955 3005 ft 248 kts 199°
2026-05-04 16:22 33.65609 -84.23238 2959 ft 249 kts 251°
2026-05-04 16:23 33.64933 -84.29186 2852 ft 223 kts 271°
2026-05-04 16:24 33.64959 -84.36004 1865 ft 183 kts 269°
2026-05-04 16:25 33.64957 -84.38838 1387 ft 155 kts 269°
2026-05-04 16:26 33.64872 -84.42798 1017 ft 57 kts 241°
2026-05-04 16:26 33.64551 -84.43402 1023 ft 42 kts 258°
2026-05-04 16:27 33.64498 -84.44010 1023 ft 31 kts 257°
2026-05-04 16:28 33.64379 -84.44195 1023 ft 0 kts 270°